weather.gov     
National Weather Service

Terminal Aerodrome Forecast
NWS Homepage
This page is being discontinued on March 12, 2014.
The same data is available at this site. Please update your bookmarks.
Thank you, and we apologize for the inconvenience.
Please send an email to SR-SRH.Webmaster@noaa.gov with any concerns.


Current Version
Previous Version:    01  02  03  04  05  06  07  08  09  10  11  12  13  14  15  16  17  18  19  20  21  22  23  24  25  26  27  28  29  30  
   31  32  33  
[Printable]
851
FTUS45 KABQ 281700
TAFSAF
TAF
KSAF 281739Z 2818/2918 14010KT P6SM SCT060
     FM282100 16011KT P6SM VCTS SCT070CB BKN120
      TEMPO 2822/2824 VRB15G25KT 4SM -TSRA BKN050CB
     FM290200 14013G20KT P6SM VCSH BKN080
     FM290900 14007KT P6SM BKN030
     FM291500 25007KT P6SM SCT040=


U.S. Dept. of Commerce
NOAA National Weather Service
1325 East West Highway
Silver Spring, MD 20910
E-mail: w-nws.webmaster@noaa.gov
Page last modified: May 16, 2007
NATIONAL WEATHER SERVICE: for Safety, for Work, for Fun - FOR LIFE